Content
SEND FEEDBACK

Daily
Averages
Monthly
Summary
Canada

QUEBEC CITY, QUEBEC


Home > North America > Canada > Quebec
Elevation: 239 feet     Latitude: 46 48N     Longitude: 071 23W

WEATHER
 
SELECT A DAY
Number of Records: 198,020;   Date Range: 6/30/96 - 12/17/14
 
SHARE

PRINT THIS DATA

[ ← Previous Day ]
WEATHER ALMANAC - FEBRUARY 17, 2013
[ Next Day → ]
[ °C ]   °F
Weather ElementAverageHighLow
Temperature14 °F23 °F (1:00 pm)6 °F (1:00 am)
Dewpoint1.2 °F5 °F (12:00 pm)-5.8 °F (11:00 pm)
Humidity54.5 %76 % (1:00 am)34 % (1:00 pm)
Barometer29.68 in29.91 in (1:00 am)29.52 in (3:00 pm)
Wind Speed10.3 mph20.7 mph (3:00 pm)
Wind Gust29.9 mph (3:00 pm)
Weather ElementAverage
Visibility22.2 mi
Wind DirectionWNW (288 °)

Weather ElementTotal
Precipitation---
Heating Degree Days50.5 (Base 65)
Averaged from 30 records on February 17, 2013
WEATHER CONDITIONS BREAKOUT
WIND DIRECTION BREAKOUT
WEATHER BY HOUR - FEBRUARY 17, 2013
[ °C ]   °F
Local TimeTemperatureDewpointHumidityBarometerVisibilityWind DirectionWind SpeedGust SpeedPrecipitationEventsConditions
1:00 AM6.0 °F2.0 °F76 %29.91 inNNE (20°)1.2 mph
1:00 AM12.2 °F3.2 °F67 %29.91 in15.0 miNNW (340°)4.6 mphMostly Cloudy
2:00 AM10.4 °F1.4 °F67 %29.90 in15.0 miNNW (330°)5.8 mphScattered Clouds
3:00 AM12.2 °F3.2 °F67 %29.87 in15.0 miNorth (360°)4.6 mphOvercast
4:00 AM11.0 °F3.0 °F60 %29.86 inNorth2.3 mph
4:00 AM12.2 °F1.4 °F62 %29.86 in15.0 miNorth (10°)5.8 mphScattered Clouds
5:00 AM12.2 °F1.4 °F62 %29.84 in15.0 miNNW (330°)5.8 mphOvercast
6:00 AM12.2 °F1.4 °F62 %29.82 in15.0 miNW (320°)5.8 mphOvercast
7:00 AM9.0 °F1.0 °F58 %29.79 inWest (280°)3.5 mph
7:00 AM10.4 °F-0.4 °F62 %29.79 in30.0 miWNW (300°)4.6 mphMostly Cloudy
8:00 AM10.4 °F-0.4 °F62 %29.76 in30.0 miNW (320°)5.8 mphMostly Cloudy
9:00 AM14.0 °F1.4 °F57 %29.73 in30.0 miNorth (360°)8.1 mphMostly Cloudy
10:00 AM16.0 °F2.0 °F40 %29.69 inNNW (340°)8.1 mph
10:00 AM15.8 °F1.4 °F53 %29.69 in30.0 miNorth (350°)10.4 mphMostly Cloudy
11:00 AM19.4 °F1.4 °F46 %29.66 in30.0 miNorth (350°)11.5 mphOvercast
12:00 PM21.2 °F5.0 °F50 %29.61 in30.0 miNW (320°)9.2 mphMostly Cloudy
1:00 PM22.0 °F5.0 °F34 %29.58 inNNW (340°)11.5 mph
1:00 PM23.0 °F5.0 °F46 %29.58 in30.0 miNNW (330°)11.5 mph19.6 mphOvercast
2:00 PM21.2 °F3.2 °F46 %29.55 in30.0 miNNW (330°)13.8 mph21.9 mphOvercast
3:00 PM21.2 °F5.0 °F50 %29.52 in30.0 miNW (310°)20.7 mph29.9 mphMostly Cloudy
4:00 PM19.0 °F4.0 °F37 %29.53 inNW (310°)13.8 mph
4:00 PM19.4 °F3.2 °F49 %29.52 in30.0 miNW (310°)18.4 mphMostly Cloudy
5:00 PM15.8 °F1.4 °F53 %29.53 in30.0 miWNW (300°)16.1 mph25.3 mphMostly Cloudy
6:00 PM12.2 °F-0.4 °F57 %29.55 in15.0 miWNW (300°)19.6 mphMostly Cloudy
7:00 PM11.0 °F0.0 °F47 %29.57 inNW (310°)11.5 mph
7:00 PM12.2 °F-2.2 °F53 %29.57 in15.0 miNW (310°)9.2 mph20.7 mphOvercast
8:00 PM10.4 °F-2.2 °F57 %29.57 in15.0 miNW (310°)17.3 mph25.3 mphOvercast
9:00 PM10.4 °F-4.0 °F52 %29.58 in15.0 miWNW (290°)16.1 mph21.9 mphOvercast
10:00 PM10.4 °F-4.0 °F52 %29.59 in15.0 miWNW (290°)16.1 mphMostly Cloudy
11:00 PM8.6 °F-5.8 °F52 %29.59 in15.0 miWest (270°)15.0 mph25.3 mphMostly Cloudy
Hourly data recorded from CYQB, located miles away from Quebec City, Quebec







STORIES FROM OUR PARTNERS